{"data":{"norad_id":52475,"intl_designator":"2022-049AA","name":"STARLINK-3882","alt_names":[],"object_type":"PAYLOAD","status":"ACTIVE","operator":null,"country":"US","launch_date":"2022-05-06","launch_site_code":"AFETR","launch_vehicle":null,"mission":null,"orbit_class":"UNKNOWN","rcs_meters":null,"size_class":null,"mass_kg":null,"dimensions":null,"purposes":["comms"],"wikipedia_slug":null,"has_3d_model":false,"image_url":null,"decayed_at":null,"tle_current":{"epoch":"2026-09-19T14:29:40.733088Z","epoch_age_seconds":140721,"freshness":"FRESH","line1":"1 52475U 22049AA  26262.60394367  .00000353  00000+0  21581-4 0  9997","line2":"2 52475  53.1601 257.5618 0001354  66.0183 294.0961 15.34389188241673","mean_motion":15.34389188,"eccentricity":0.0001354,"inclination_deg":53.1601,"raan_deg":257.5618,"arg_perigee_deg":66.0183,"mean_anomaly_deg":294.0961,"bstar":2.1581e-5,"rev_number":24167,"period_min":93.848419375072,"perigee_km":461.80912181863,"apogee_km":463.66163005803,"semimajor_km":6840.8723759383,"source":"CELESTRAK","updated_at":"2026-09-20T09:00:40.052242Z"}}}